Torna al catalogo

BREEZE-M DEB

AttivoHEO
NORAD 34244·DEBRIS·🇷🇺 Russia

Lanciato Feb 28, 2006 da Baikonur Cosmodrome

Loading…

Prossimi Passaggi (prossime 24 ore)

TLE

AggiornatoSource: Space-Track

Epoca: Sep 11, 2026, 01:51 UTC

1 34244U 06006BK  26254.07761661  .00001719  00000-0  31645-2 0  9991
2 34244  51.9950 160.3198 4737451 187.3971 161.9796  5.77327223 50588

Traccia BREEZE-M DEB in tempo reale con AllMySat

Download on the App Store